| time (UTC) | temp F | wind direction | speed MPH | gust MPH | rain 1hr in | rain 24hr in | rain mn in | humidity % | barometer mb |
| 20260502234603 | 63 | 233 | 1.0 | 4.0 | 0.00 | 0.00 | 0.00 | 20 | 1013.1 |
| 20260502233051 | 63 | 319 | 1.0 | 4.0 | 0.00 | 0.00 | 0.00 | 20 | 1013.3 |
| 20260502231551 | 64 | 200 | 2.0 | 6.0 | 0.00 | 0.00 | 0.00 | 18 | 1013.3 |
| 20260502230049 | 63 | 186 | 1.0 | 7.0 | 0.00 | 0.00 | 0.00 | 21 | 1013.5 |
| 20260502224547 | 63 | 300 | 1.0 | 9.0 | 0.00 | 0.00 | 0.00 | 21 | 1013.4 |
| 20260502223058 | 62 | 203 | 2.0 | 4.0 | 0.00 | 0.00 | 0.00 | 21 | 1013.7 |
| 20260502221546 | 63 | 248 | 0.0 | 5.0 | 0.00 | 0.00 | 0.00 | 22 | 1013.8 |
| 20260502220047 | 63 | 274 | 1.0 | 3.0 | 0.00 | 0.00 | 0.00 | 19 | 1014.0 |
| 20260502214605 | 64 | 323 | 1.0 | 6.0 | 0.00 | 0.00 | 0.00 | 21 | 1014.2 |
| 20260502213054 | 64 | 237 | 1.0 | 6.0 | 0.00 | 0.00 | 0.00 | 22 | 1014.4 |
| 20260502211538 | 64 | 229 | 2.0 | 7.0 | 0.00 | 0.00 | 0.00 | 23 | 1014.6 |
| 20260502210035 | 63 | 248 | 2.0 | 4.0 | 0.00 | 0.00 | 0.00 | 20 | 1014.9 |
| 20260502204539 | 63 | 236 | 2.0 | 7.0 | 0.00 | 0.00 | 0.00 | 21 | 1015.1 |
| 20260502203056 | 64 | 238 | 2.0 | 10.0 | 0.00 | 0.00 | 0.00 | 21 | 1015.2 |
| 20260502201530 | 64 | 175 | 1.0 | 5.0 | 0.00 | 0.00 | 0.00 | 24 | 1015.4 |
| 20260502200028 | 62 | 242 | 3.0 | 6.0 | 0.00 | 0.00 | 0.00 | 20 | 1015.5 |
| 20260502194529 | 63 | 240 | 1.0 | 5.0 | 0.00 | 0.00 | 0.00 | 21 | 1015.7 |
| 20260502193026 | 62 | 243 | 1.0 | 3.0 | 0.00 | 0.00 | 0.00 | 21 | 1015.7 |
| 20260502191522 | 61 | 246 | 1.0 | 6.0 | 0.00 | 0.00 | 0.00 | 22 | 1015.9 |
| 20260502190021 | 60 | 323 | 2.0 | 5.0 | 0.00 | 0.00 | 0.00 | 25 | 1016.2 |
| 20260502184517 | 60 | 10 | 1.0 | 6.0 | 0.00 | 0.00 | 0.00 | 26 | 1016.4 |
| 20260502183013 | 59 | 319 | 2.0 | 7.0 | 0.00 | 0.00 | 0.00 | 28 | 1016.6 |
| 20260502181508 | 57 | 288 | 1.0 | 5.0 | 0.00 | 0.00 | 0.00 | 35 | 1016.7 |
| 20260502180105 | 55 | 334 | 2.0 | 5.0 | 0.00 | 0.00 | 0.00 | 37 | 1016.9 |
| 20260502163052 | 44 | 325 | 1.0 | 4.0 | 0.00 | 0.00 | 0.00 | 57 | 1018.1 |
| 20260502161554 | 42 | 284 | 0.0 | 2.0 | 0.00 | 0.00 | 0.00 | 59 | 1018.2 |
| 20260502151524 | 35 | 148 | 0.0 | 1.0 | 0.00 | 0.00 | 0.00 | 76 | 1018.9 |
| 20260502123021 | 25 | 141 | 0.0 | 1.0 | 0.00 | 0.00 | 0.00 | 87 | 1018.9 |
| 20260502121518 | 25 | 142 | 0.0 | 0.0 | 0.00 | 0.00 | 0.00 | 88 | 1018.9 |
| 20260502114513 | 26 | 360 | 0.0 | 0.0 | 0.00 | 0.00 | 0.00 | 86 | 1019.0 |
| 20260502113011 | 26 | 360 | 0.0 | 0.0 | 0.00 | 0.00 | 0.00 | 86 | 1019.0 |
| 20260502111510 | 26 | 360 | 0.0 | 0.0 | 0.00 | 0.00 | 0.00 | 86 | 1019.0 |
| 20260502110012 | 27 | 360 | 0.0 | 0.0 | 0.00 | 0.00 | 0.00 | 86 | 1019.0 |
| 20260502104515 | 27 | 360 | 0.0 | 0.0 | 0.00 | 0.00 | 0.00 | 84 | 1019.1 |
| 20260502103006 | 28 | 360 | 0.0 | 1.0 | 0.00 | 0.00 | 0.00 | 82 | 1019.0 |
| 20260502101506 | 28 | 360 | 0.0 | 1.0 | 0.00 | 0.00 | 0.00 | 84 | 1019.0 |
| 20260502071536 | 35 | 128 | 0.0 | 1.0 | 0.00 | 0.00 | 0.00 | 65 | 1019.4 |
| 20260502070039 | 36 | 126 | 0.0 | 1.0 | 0.00 | 0.00 | 0.00 | 64 | 1019.4 |
| 20260502064545 | 35 | 123 | 0.0 | 1.0 | 0.00 | 0.00 | 0.00 | 65 | 1019.4 |
| 20260502063034 | 36 | 124 | 0.0 | 1.0 | 0.00 | 0.00 | 0.00 | 62 | 1019.3 |
| 20260502061530 | 36 | 360 | 0.0 | 1.0 | 0.00 | 0.00 | 0.00 | 61 | 1019.3 |
| 20260502060031 | 37 | 360 | 0.0 | 1.0 | 0.00 | 0.00 | 0.00 | 61 | 1019.2 |
| 20260502054534 | 37 | 360 | 0.0 | 0.0 | 0.00 | 0.00 | 0.00 | 59 | 1019.2 |
| 20260502053031 | 38 | 360 | 0.0 | 3.0 | 0.00 | 0.00 | 0.00 | 57 | 1019.2 |
| 20260502051534 | 40 | 360 | 0.0 | 0.0 | 0.00 | 0.00 | 0.00 | 54 | 1019.1 |
| 20260502050040 | 40 | 360 | 0.0 | 1.0 | 0.00 | 0.00 | 0.00 | 53 | 1019.1 |
| 20260502044526 | 41 | 76 | 0.0 | 1.0 | 0.00 | 0.00 | 0.00 | 52 | 1019.1 |
| 20260502043030 | 43 | 90 | 0.0 | 1.0 | 0.00 | 0.00 | 0.00 | 49 | 1019.0 |
| 20260502041526 | 44 | 360 | 0.0 | 1.0 | 0.00 | 0.00 | 0.00 | 44 | 1018.9 |
| 20260502040025 | 44 | 89 | 0.0 | 2.0 | 0.00 | 0.00 | 0.00 | 45 | 1018.7 |
| 20260502034525 | 45 | 59 | 0.0 | 2.0 | 0.00 | 0.00 | 0.00 | 44 | 1018.3 |
| 20260502033027 | 46 | 53 | 0.0 | 1.0 | 0.00 | 0.00 | 0.00 | 42 | 1018.1 |
| 20260502031524 | 46 | 351 | 0.0 | 2.0 | 0.00 | 0.00 | 0.00 | 39 | 1017.8 |
| 20260502030024 | 47 | 46 | 0.0 | 2.0 | 0.00 | 0.00 | 0.00 | 39 | 1017.6 |
| 20260502024528 | 49 | 360 | 0.0 | 2.0 | 0.00 | 0.00 | 0.00 | 40 | 1017.5 |
| 20260502023023 | 51 | 62 | 0.0 | 2.0 | 0.00 | 0.00 | 0.00 | 35 | 1017.5 |
| 20260502021525 | 55 | 294 | 0.0 | 1.0 | 0.00 | 0.00 | 0.00 | 30 | 1017.6 |
| 20260502020022 | 58 | 292 | 0.0 | 2.0 | 0.00 | 0.00 | 0.00 | 27 | 1017.5 |
| 20260502014521 | 59 | 319 | 0.0 | 3.0 | 0.00 | 0.00 | 0.00 | 24 | 1017.5 |
| 20260502013020 | 60 | 221 | 0.0 | 2.0 | 0.00 | 0.00 | 0.00 | 23 | 1017.6 |
| 20260502011519 | 60 | 218 | 0.0 | 3.0 | 0.00 | 0.00 | 0.00 | 23 | 1017.7 |
| 20260502010025 | 60 | 235 | 1.0 | 3.0 | 0.00 | 0.00 | 0.00 | 23 | 1017.8 |
| 20260502004517 | 60 | 172 | 1.0 | 5.0 | 0.00 | 0.00 | 0.00 | 23 | 1017.9 |
| 20260502003016 | 61 | 250 | 0.0 | 3.0 | 0.00 | 0.00 | 0.00 | 22 | 1017.9 |
| 20260502001514 | 60 | 186 | 0.0 | 4.0 | 0.00 | 0.00 | 0.00 | 24 | 1018.1 |
| 20260502000016 | 61 | 260 | 0.0 | 5.0 | 0.00 | 0.00 | 0.00 | 22 | 1018.2 |